Theta_e
347 345 346 346 346 347 347 348 349 349 350 350 350 350 351 351 351 351 350 350 350 350 349 348 347 348 347 347 347 347 346 346 346 346 345 344 345 345 345 345 345 346 349 349 348 349 350 350 350 350 351 351 351 352 351 351 352 351 350 350 350 350 349 347 347 346 345 343 343 342 340 340 341 341 341 341 342 342 342 342 342 342 342 342 342
351 347 346 346 346 347 348 349 349 350 350 350 351 350 351 351 351 351 351 351 350 348 348 347 347 347 347 347 347 347 346 346 346 346 344 344 346 346 345 344 345 347 349 349 349 350 351 351 350 351 352 352 352 352 352 352 352 352 351 350 349 350 349 348 348 346 344 343 342 342 345 344 342 341 341 342 342 342 342 341 340 340 340 339 340
356 349 346 346 347 348 348 349 350 350 351 350 350 351 351 351 351 351 351 349 349 347 347 347 347 347 346 345 346 346 346 346 346 345 344 345 346 347 345 344 346 348 350 348 349 352 353 352 351 352 352 353 354 353 353 353 353 353 351 350 349 349 349 348 348 347 345 344 343 347 350 350 348 344 342 343 343 342 342 341 339 339 340 340 340
359 351 346 346 347 348 349 349 350 350 350 351 350 351 350 351 351 350 350 348 348 347 347 346 346 346 345 345 346 346 347 346 347 346 345 346 345 346 346 345 346 348 349 348 349 353 353 353 354 353 353 353 355 354 354 353 353 353 352 351 350 350 349 349 349 348 347 346 347 351 349 350 355 349 343 344 343 342 342 341 341 341 342 341 341
359 353 346 346 346 348 349 349 350 350 350 350 350 351 350 351 350 350 349 348 348 348 347 346 346 346 346 347 347 347 347 347 347 346 346 346 345 345 347 347 347 348 348 348 349 352 353 354 355 354 353 354 354 354 354 354 354 353 353 352 352 351 351 350 350 350 351 350 348 351 351 356 359 347 344 349 343 341 342 341 342 343 343 343 343
357 354 348 346 345 347 349 349 350 350 350 350 350 351 350 350 350 350 349 348 348 348 347 346 346 346 347 348 348 348 349 348 347 347 346 346 344 344 347 348 348 347 348 347 348 351 352 354 354 354 354 354 354 354 353 354 354 353 353 353 352 353 353 351 350 350 353 353 349 349 349 353 354 345 348 354 346 342 342 341 342 342 342 344 345
355 352 350 348 345 346 348 349 350 350 350 350 350 351 350 351 351 350 349 348 349 349 347 346 345 346 347 347 347 347 348 347 346 346 347 346 344 344 346 347 347 347 346 346 347 350 351 353 353 354 354 354 354 354 353 354 354 354 353 353 352 354 354 352 350 350 352 352 352 350 347 346 346 345 351 353 349 348 344 340 342 341 342 344 345
351 350 349 348 346 345 347 349 350 350 350 350 350 351 350 351 350 350 349 348 349 349 348 346 345 345 346 346 347 346 346 346 346 347 347 347 346 346 346 347 347 347 345 343 344 347 348 349 352 353 354 355 355 355 354 354 353 353 353 351 351 352 355 354 351 352 353 353 353 351 348 344 342 343 345 345 348 352 349 345 343 342 343 344 345
348 349 347 348 346 345 346 348 349 349 350 350 350 351 350 351 350 350 350 349 349 349 349 347 346 345 345 346 347 347 346 346 347 347 347 348 347 347 346 346 347 348 346 341 341 343 343 345 351 354 354 354 354 354 355 354 353 353 352 351 351 352 355 355 353 354 355 355 355 353 350 347 344 344 343 342 345 351 353 351 346 343 345 344 345
347 347 346 348 347 346 346 348 349 349 349 350 350 350 350 350 350 350 350 349 348 348 349 348 347 346 345 345 346 347 346 346 347 347 347 347 347 346 346 346 347 349 347 344 344 344 344 346 352 354 353 353 353 353 354 355 354 353 352 352 351 351 353 354 353 354 356 356 355 354 353 351 348 346 346 345 344 345 348 348 344 343 347 346 345
345 345 345 347 348 347 346 346 348 349 349 349 350 350 350 350 350 349 349 348 347 347 348 348 348 347 345 345 346 346 346 347 347 347 347 347 347 346 345 346 348 349 348 347 348 348 347 349 353 353 352 353 353 353 352 354 354 353 352 353 352 352 353 354 354 355 355 355 355 354 353 353 352 350 350 349 345 344 347 348 343 343 346 346 346
346 346 345 347 348 348 346 346 348 348 349 350 350 350 350 350 350 349 348 348 347 346 346 346 347 346 346 345 346 346 346 346 346 346 346 347 346 346 345 345 348 349 349 348 349 351 350 351 353 353 352 353 354 353 351 352 354 354 353 353 352 352 353 353 353 354 354 354 354 354 354 354 353 353 352 350 348 344 345 346 344 345 348 347 345
349 350 352 352 350 348 347 346 347 349 349 349 349 349 350 350 349 349 349 348 347 347 346 346 346 345 345 345 346 346 346 346 346 345 345 346 346 346 345 345 347 349 348 347 348 350 350 351 352 352 352 354 354 353 351 351 353 355 353 354 353 352 352 352 352 352 353 354 354 354 354 355 354 353 353 351 350 345 343 346 346 346 349 348 346
349 351 356 353 349 348 347 346 345 347 348 348 349 349 349 349 349 349 349 348 347 347 347 346 346 345 345 345 346 346 347 347 347 345 345 345 346 346 346 346 347 349 347 346 347 348 349 350 352 352 353 353 353 353 352 351 352 354 354 354 354 353 353 353 353 353 354 354 354 354 354 355 354 354 354 353 352 348 344 346 347 346 347 346 346
349 349 352 349 347 347 347 345 344 345 347 347 348 348 349 349 349 349 349 348 348 347 347 347 345 344 344 345 346 346 347 347 348 347 346 346 346 346 346 346 347 348 347 347 349 348 348 351 353 353 353 353 353 354 352 352 353 354 355 354 354 353 353 353 353 354 355 355 355 355 354 354 354 354 355 355 354 351 348 347 346 349 352 350 348
349 350 351 348 347 347 346 345 345 345 346 347 347 347 348 348 349 349 349 348 348 346 346 346 345 345 345 345 347 347 347 347 347 347 347 346 346 346 345 346 347 348 348 348 349 349 348 350 352 351 352 352 353 353 353 353 354 355 355 355 354 353 353 353 354 354 355 355 355 356 355 355 354 355 355 355 354 353 352 349 347 348 353 356 353
348 350 350 349 348 346 346 347 346 346 345 346 347 347 348 348 348 349 349 348 348 347 346 345 346 345 346 347 348 348 348 347 348 347 347 346 346 346 346 347 348 348 348 348 348 349 349 350 351 351 351 352 353 353 353 353 354 355 355 354 354 353 354 354 354 355 355 355 355 355 356 356 356 355 355 355 355 354 352 351 350 347 349 354 357
347 349 348 348 347 346 346 347 347 347 346 345 347 347 347 348 348 348 348 348 348 348 347 346 346 346 347 348 349 349 348 347 348 347 347 346 346 346 346 347 349 348 349 348 348 349 350 350 351 351 352 353 353 353 353 353 354 354 354 354 353 354 355 355 355 355 355 356 356 356 357 357 356 356 356 357 356 355 352 351 351 348 347 350 352
345 346 347 347 347 347 347 346 347 347 347 346 346 346 347 347 348 348 348 349 349 349 348 346 346 347 348 349 349 349 349 348 348 347 346 347 346 347 348 348 349 349 349 348 348 348 349 349 351 352 353 353 354 353 353 353 354 354 354 354 354 354 355 356 355 355 355 356 356 356 357 356 356 356 356 358 357 355 354 352 351 350 349 349 348
344 345 346 346 346 347 348 347 347 347 347 348 347 346 347 346 348 349 349 349 349 349 349 347 348 348 349 349 350 350 349 348 348 347 347 347 347 348 348 348 349 350 349 348 349 349 349 350 351 352 353 353 352 352 352 352 352 353 353 353 354 354 355 356 356 355 355 355 355 356 356 356 357 357 356 357 357 357 355 354 353 352 351 351 348
344 345 345 346 347 348 349 347 347 347 347 348 347 347 347 346 347 349 349 350 349 349 349 348 348 349 349 350 350 350 350 349 349 349 349 348 347 347 347 348 349 350 350 349 350 350 351 351 351 352 352 352 351 351 351 351 351 351 352 352 353 354 355 355 355 355 356 356 356 355 356 356 356 356 356 356 357 357 356 354 354 354 352 352 351
345 346 346 347 348 348 348 348 347 348 348 348 348 348 347 347 347 348 349 349 349 349 350 349 349 349 350 350 350 350 350 349 349 350 350 350 349 348 348 349 350 350 351 351 351 351 351 351 351 351 351 351 350 350 350 351 351 351 351 352 353 354 354 354 354 355 355 355 356 356 356 356 355 355 355 356 356 357 356 354 353 353 352 352 352
346 346 347 348 348 348 348 348 347 347 348 348 348 348 347 347 347 348 349 349 349 349 350 350 350 350 350 350 350 350 350 349 349 349 350 351 351 350 349 350 351 351 351 351 350 351 351 351 350 350 351 350 350 350 350 350 350 350 351 351 353 354 354 354 354 354 354 354 355 356 356 356 355 355 355 355 356 356 356 354 352 352 351 351 351
346 346 347 347 347 347 348 348 347 346 347 347 348 348 348 348 347 347 348 348 349 349 350 351 350 350 350 350 350 350 350 350 349 348 349 350 350 351 351 351 352 352 351 351 350 351 351 351 351 351 351 351 351 350 350 350 350 351 351 351 352 353 354 354 354 353 353 353 354 355 356 356 354 354 354 354 354 355 355 354 352 352 351 351 350
345 345 346 346 347 346 347 347 347 347 346 346 347 348 348 348 348 347 348 349 349 349 350 350 350 351 351 351 350 350 350 350 350 349 349 348 350 351 351 351 351 351 351 350 350 351 351 351 351 351 350 350 351 350 350 350 350 350 350 351 352 353 354 354 354 353 353 353 354 355 356 356 354 353 353 353 353 354 354 353 352 351 351 351 350
343 344 344 345 346 345 345 345 346 347 347 346 346 347 348 348 348 348 348 349 349 350 350 350 351 351 351 351 351 351 351 351 350 350 349 349 349 351 351 351 351 351 351 350 351 351 351 351 350 350 350 350 350 350 350 350 349 349 349 350 351 352 353 353 353 352 352 352 353 354 355 354 352 351 352 353 353 353 352 351 351 351 351 351 350
341 343 343 344 344 344 344 344 345 346 347 347 346 347 347 348 348 348 349 349 349 349 349 350 350 350 350 352 352 351 351 351 351 350 350 349 350 350 351 351 351 351 351 350 351 350 350 350 349 349 350 350 350 350 350 350 350 349 348 348 349 350 351 352 352 352 352 352 351 352 353 352 351 351 352 353 352 352 351 351 351 350 350 350 350
339 341 342 344 344 344 344 344 345 346 346 347 347 347 347 347 348 348 348 348 348 348 348 348 348 349 349 351 352 352 352 351 352 351 350 350 350 350 351 351 351 351 350 350 350 350 349 349 349 350 350 350 351 351 350 350 349 349 349 349 349 350 351 351 352 352 352 351 351 351 351 351 351 352 352 352 351 351 351 350 350 349 349 349 350
339 340 342 344 344 344 344 344 345 346 346 347 347 347 347 347 347 347 347 348 348 347 347 348 348 349 348 349 351 352 352 352 352 352 351 351 350 350 351 351 351 350 349 350 350 350 350 350 350 350 350 350 351 350 351 351 350 349 349 350 350 350 351 351 351 352 352 351 352 352 351 352 352 352 352 352 351 352 352 352 351 351 350 349 349
340 340 342 344 344 344 344 344 345 345 346 347 347 347 347 347 347 347 347 347 347 347 347 347 348 348 348 349 350 352 352 352 352 352 352 352 351 351 351 351 351 350 350 350 350 351 351 350 350 350 350 350 350 350 351 350 350 350 350 350 351 351 351 351 352 352 352 352 352 352 351 351 351 351 352 352 352 352 353 355 354 353 352 351 350
340 341 342 342 342 342 342 343 343 342 343 344 345 346 347 347 348 347 347 347 347 347 347 347 347 347 348 349 351 352 353 352 352 352 352 352 352 352 352 352 352 351 351 352 351 351 351 350 350 350 350 350 350 350 351 351 351 350 350 351 351 351 352 352 353 353 352 352 352 351 351 351 351 352 351 350 350 351 353 355 356 355 354 353 351
341 341 342 341 340 340 341 342 342 341 341 342 343 344 344 346 347 347 347 348 347 348 347 347 347 347 347 349 350 352 352 352 353 352 352 352 352 352 352 352 352 352 352 352 351 350 350 349 349 349 350 350 350 351 351 351 350 350 350 352 352 353 353 352 353 353 352 352 352 352 353 353 352 352 351 350 350 352 353 353 354 354 354 353 351
341 340 341 340 339 339 340 340 341 340 341 341 341 343 344 345 347 347 348 348 348 348 348 347 348 347 347 348 349 350 352 352 352 352 352 352 352 352 352 352 352 352 351 351 350 349 349 349 349 350 350 350 350 351 351 351 351 351 351 352 353 353 353 353 353 352 352 352 353 353 354 354 352 351 350 351 351 351 352 352 353 354 353 352 351
340 339 339 338 337 338 338 339 340 339 340 341 341 343 345 347 347 347 348 348 348 348 348 348 348 347 347 348 347 348 349 349 351 352 352 352 352 351 351 351 351 351 351 351 350 349 349 348 349 350 350 350 350 350 350 350 351 351 351 352 352 352 351 352 353 353 354 355 354 353 353 352 352 351 349 349 349 348 349 351 352 352 353 352 351
339 338 337 336 335 336 337 338 339 339 339 339 340 343 345 348 348 348 348 348 348 348 347 348 348 347 347 347 347 347 346 346 348 351 352 352 351 352 351 350 349 349 350 350 349 350 350 349 349 349 349 349 349 349 349 349 349 350 350 350 350 350 350 351 352 354 355 353 351 351 350 349 349 349 348 348 348 349 349 350 351 351 350 350 350
338 337 335 334 334 334 335 336 338 339 339 338 340 343 345 347 348 348 348 348 348 348 347 347 347 347 347 347 347 347 345 344 346 349 350 350 351 352 351 350 348 347 347 349 350 352 353 350 348 348 350 350 350 349 349 349 349 349 349 349 348 348 349 349 351 353 354 352 349 348 348 348 348 349 349 348 348 350 350 351 351 351 349 348 347
335 334 333 332 332 332 333 335 337 338 338 338 340 341 344 345 346 347 348 348 347 347 346 346 346 346 347 347 346 346 346 345 346 346 347 347 349 349 348 349 349 347 346 350 353 353 353 351 350 351 352 351 350 350 350 349 350 349 348 347 347 346 347 348 349 351 352 351 349 347 347 348 348 348 349 348 348 349 350 350 349 349 347 346 344
332 331 331 331 331 332 333 334 336 337 338 338 339 340 342 343 343 344 345 345 345 345 345 346 346 346 346 346 346 347 347 346 346 346 346 346 347 348 347 347 348 346 346 350 354 352 350 350 350 351 351 350 349 349 349 349 348 347 346 346 345 346 346 347 347 348 348 348 348 346 346 346 347 347 346 346 347 347 347 347 347 346 345 343 341
330 330 330 330 331 331 333 335 335 335 337 338 338 339 340 340 341 341 342 341 342 343 344 345 345 345 346 346 346 347 346 345 345 346 346 346 346 347 347 346 345 344 345 348 350 349 347 347 348 348 348 347 347 345 346 346 346 345 345 343 343 345 345 344 345 346 345 345 344 343 344 344 344 344 343 343 343 343 343 343 342 342 340 338 337
330 331 330 330 330 329 331 332 333 335 336 336 337 337 337 337 338 338 338 338 338 339 340 341 341 342 342 344 344 344 344 344 345 345 345 345 345 345 345 346 345 344 344 345 346 345 342 341 342 343 343 342 341 340 341 342 343 343 343 342 343 345 344 343 344 343 342 340 339 339 339 339 339 339 338 338 337 337 337 337 336 336 336 335 336
329 330 330 329 328 328 330 331 332 334 335 334 335 334 333 334 334 333 332 333 334 335 336 337 337 337 338 339 340 340 340 341 341 341 342 342 342 342 342 342 342 342 342 342 342 341 339 337 336 336 337 337 336 336 337 339 340 341 342 342 344 345 344 342 340 338 336 335 336 335 335 335 335 335 334 334 333 333 333 333 334 334 335 336 337
328 329 329 328 327 329 330 331 332 333 333 333 333 332 331 330 329 328 329 331 332 334 334 333 332 332 333 335 336 336 338 339 339 340 341 340 339 340 339 339 339 339 339 338 337 337 336 334 332 332 332 333 333 333 334 336 338 340 341 343 344 344 343 341 337 334 333 333 334 334 334 333 333 333 332 332 332 332 332 333 334 334 335 336 335
328 328 328 327 328 328 329 330 331 332 332 332 331 329 329 328 326 327 329 330 330 331 331 329 328 328 329 330 331 332 334 335 335 337 338 337 336 337 336 336 335 335 334 333 331 331 331 329 329 329 329 330 330 331 333 335 337 339 341 343 344 343 341 339 335 333 333 333 333 333 333 333 332 332 331 330 330 330 331 332 333 333 334 334 333
327 328 328 327 328 329 329 330 330 330 330 330 329 328 327 325 325 327 330 330 328 328 329 327 326 327 327 327 328 329 330 330 331 332 332 332 332 333 332 332 333 332 331 328 326 327 327 326 326 326 327 328 329 330 331 333 335 338 339 340 342 340 338 336 334 332 332 333 333 333 332 331 330 329 329 329 328 329 329 330 331 331 331 331 330
329 331 331 329 328 328 328 328 328 329 329 328 328 328 326 323 324 327 328 328 327 327 328 327 325 326 326 326 326 326 327 327 326 327 326 326 327 328 327 326 326 326 324 322 322 323 323 323 323 324 325 326 327 328 330 331 333 334 335 335 337 336 334 333 332 331 332 332 332 331 330 329 328 327 327 327 327 327 327 327 327 327 327 326 325
331 332 332 331 328 327 327 327 326 325 325 324 324 324 323 323 326 328 327 327 327 327 327 327 327 326 326 326 325 324 325 325 324 324 323 322 322 322 322 322 322 321 320 319 318 318 319 319 320 320 321 323 324 327 329 330 331 333 333 333 333 333 332 331 331 331 331 331 330 330 328 326 325 324 324 323 323 323 324 323 323 323 322 321 320
331 331 332 331 327 326 327 326 324 323 321 319 318 318 319 323 327 328 327 327 326 325 324 324 325 325 325 326 326 326 326 326 325 325 325 324 323 321 321 321 321 320 320 320 319 318 318 318 319 319 320 320 321 324 328 330 331 332 333 333 333 333 333 332 331 329 329 328 327 326 325 323 322 321 321 321 321 321 320 320 320 319 318 318 317
330 329 330 330 327 326 326 325 325 324 322 319 317 315 316 318 321 323 324 324 322 320 318 317 319 320 321 321 321 321 320 318 317 318 320 321 321 320 319 319 319 319 320 321 321 321 321 321 322 322 322 322 320 322 327 330 331 332 333 333 333 333 333 332 330 328 326 325 324 323 322 322 321 320 320 320 319 319 319 318 318 318 317 317 317
329 328 328 328 328 327 326 326 326 325 323 320 318 316 314 313 313 314 315 315 314 313 312 312 312 312 312 313 313 313 313 313 313 315 316 317 318 317 317 318 320 321 322 323 323 323 323 324 325 325 325 324 322 323 327 330 332 333 333 334 333 333 333 331 329 326 325 323 323 322 321 321 320 319 319 319 318 318 317 317 317 317 316 316 316
328 328 327 327 327 327 327 327 327 326 325 323 320 319 317 313 311 312 311 311 311 311 311 311 311 311 311 312 313 315 316 317 318 319 319 320 320 320 320 320 322 323 323 324 324 324 324 326 327 327 327 327 326 325 327 331 333 334 334 333 332 331 330 328 326 325 324 323 322 320 319 318 318 318 317 317 317 316 316 315 315 314 314 314 313
328 327 326 326 326 326 326 327 327 327 327 325 324 323 320 318 317 318 317 316 315 314 314 313 313 312 313 313 314 315 317 318 320 321 322 322 322 322 322 323 323 323 323 323 324 324 325 326 327 328 328 328 329 328 329 331 333 333 334 333 331 329 328 327 326 325 323 321 320 319 317 317 317 317 316 316 315 315 314 313 312 312 311 311 310
Wind_Speed
4 6 11 15 18 20 21 21 21 21 21 22 22 22 22 22 22 22 21 20 20 19 17 16 17 17 15 15 15 15 16 16 15 14 15 16 15 15 16 15 13 12 10 9 7 5 5 7 7 6 6 6 7 6 4 4 4 4 4 4 5 6 7 6 7 7 8 7 7 8 7 6 7 8 9 9 10 10 9 9 8 8 9 8 8
4 4 7 11 14 18 20 20 22 22 23 24 24 23 22 21 22 22 22 21 21 20 17 17 17 18 18 18 17 16 16 16 15 15 16 16 15 15 16 15 14 13 11 9 8 6 7 8 8 7 7 7 7 6 5 4 5 5 6 6 6 7 8 7 7 6 5 5 6 7 7 9 8 5 6 9 8 9 8 8 7 6 5 6 6
2 3 4 8 12 16 18 20 22 23 24 24 24 23 22 21 21 21 22 22 21 19 18 17 17 18 18 18 18 16 15 15 14 15 15 15 15 16 15 15 15 14 12 11 10 8 8 8 8 7 7 7 7 6 6 5 5 6 7 8 7 7 7 7 7 5 4 5 5 3 3 6 6 5 11 12 6 5 6 6 6 5 5 5 4
2 2 3 6 10 15 17 18 20 21 22 23 23 23 22 22 22 22 23 22 20 18 17 16 16 16 16 15 16 15 14 13 13 13 14 15 16 16 16 16 16 15 13 12 11 9 8 8 7 7 7 7 6 6 6 5 6 7 7 7 6 6 5 5 6 5 4 4 2 1 0 1 2 4 11 10 7 8 5 4 5 5 5 5 5
6 3 3 5 8 14 17 18 19 20 22 24 25 25 23 23 23 22 23 21 19 18 17 16 17 17 16 13 13 13 12 12 14 14 15 16 17 17 17 16 16 16 15 14 13 11 9 7 6 6 6 6 6 6 6 6 6 6 7 6 6 6 5 5 5 4 4 3 1 1 1 1 1 3 6 5 9 10 3 4 6 5 6 5 6
2 2 3 4 7 12 15 17 19 20 23 25 26 25 23 23 23 23 23 21 19 18 17 17 19 19 18 16 15 15 13 13 16 16 16 17 18 18 18 16 16 16 16 16 14 12 10 8 6 6 6 6 6 6 6 6 6 5 6 6 6 5 5 6 5 4 5 4 3 2 3 3 4 4 3 2 8 7 3 8 6 7 10 7 6
4 5 4 4 6 10 14 17 20 21 23 23 24 23 22 22 23 23 23 21 19 19 18 19 21 20 19 18 17 17 16 15 16 17 17 17 17 18 17 16 15 15 14 15 15 13 11 10 8 7 7 7 7 7 7 7 6 6 6 6 6 6 6 7 6 6 5 4 4 4 4 5 5 4 1 1 5 4 7 11 7 9 12 7 7
5 5 6 5 7 11 15 19 21 21 22 22 23 23 23 23 23 23 23 21 20 20 19 20 22 21 20 19 17 17 17 16 16 16 16 16 16 16 16 16 15 14 13 14 15 14 13 12 10 9 8 7 7 7 7 7 6 6 6 6 6 6 7 7 6 6 5 4 5 5 5 4 4 4 3 2 1 2 7 9 10 15 13 8 8
5 6 8 7 8 12 16 18 20 20 21 22 24 24 24 23 23 24 23 22 20 21 20 21 22 21 20 19 18 17 17 16 16 16 16 16 16 16 16 15 14 14 12 12 14 14 14 13 11 10 8 7 8 8 7 7 7 6 6 6 7 7 7 7 7 5 4 5 5 6 6 5 5 5 4 3 1 2 3 3 9 15 13 12 9
5 6 8 9 10 12 15 16 19 20 20 21 22 22 23 24 24 24 23 22 21 21 21 21 22 22 21 20 19 17 17 16 16 15 16 16 16 16 16 15 14 13 12 12 13 13 13 13 12 11 9 8 8 9 8 7 6 6 5 6 7 8 8 7 7 6 5 5 6 6 7 6 5 3 4 4 3 2 2 3 7 8 9 12 12
5 6 8 10 11 11 14 16 17 18 19 19 21 21 22 24 25 25 24 22 21 21 22 22 22 23 22 21 20 19 18 18 17 17 17 17 17 17 17 15 14 13 13 14 13 12 12 13 13 11 10 9 9 9 10 8 7 6 6 6 7 7 7 7 7 7 6 6 7 7 7 6 5 5 7 8 5 4 3 3 7 8 8 10 14
6 6 7 9 10 10 11 16 17 18 18 19 20 21 22 24 25 26 25 23 22 22 22 22 22 23 23 22 21 20 19 19 19 19 18 18 18 18 18 17 15 15 15 15 14 13 13 14 13 12 10 10 9 9 10 10 8 7 6 6 7 7 6 7 7 7 7 7 7 7 7 7 7 7 9 9 8 7 5 4 6 8 6 9 16
5 3 3 4 6 8 9 11 12 15 18 21 22 22 22 24 25 26 26 25 24 23 23 23 23 24 23 23 22 21 20 20 20 20 19 19 20 20 19 18 17 16 16 16 15 14 14 14 13 12 11 11 10 10 11 11 10 8 8 7 7 7 7 7 8 8 7 7 7 7 8 8 8 8 9 9 9 9 7 4 6 7 5 9 15
3 2 3 4 5 7 4 3 3 5 10 13 18 21 23 24 25 26 27 26 26 25 24 24 24 24 24 23 22 22 22 21 21 20 20 20 20 20 19 18 17 16 16 15 14 14 15 14 13 12 12 12 12 11 11 11 10 10 9 8 8 8 8 8 8 8 7 7 7 7 8 8 8 9 9 10 10 9 7 6 5 6 5 7 10
2 4 6 7 8 5 4 8 10 10 10 10 12 15 19 22 25 27 27 27 28 27 26 26 25 25 24 24 23 22 22 22 21 20 20 20 20 19 18 17 17 15 14 14 13 13 14 14 13 13 12 12 13 12 11 11 11 10 10 10 10 9 9 9 9 9 9 8 8 8 8 8 8 8 9 10 10 9 9 8 6 4 4 4 5
2 3 5 6 7 8 10 14 19 19 18 17 15 14 17 19 22 26 28 28 29 28 27 27 27 26 25 24 23 23 22 22 22 21 20 20 20 19 18 17 17 16 15 14 13 13 13 13 13 13 13 13 13 12 12 12 11 11 11 11 11 11 11 11 11 11 12 11 10 10 10 9 8 8 9 10 11 10 9 9 7 4 2 2 3
4 3 4 5 6 8 13 17 19 21 22 23 23 23 23 21 21 23 26 27 28 29 29 28 27 27 26 25 24 23 23 23 22 21 21 21 20 19 18 17 17 17 16 15 15 14 14 14 13 13 13 13 13 12 12 12 13 13 13 13 13 13 13 13 12 12 13 13 13 12 12 11 9 9 10 10 10 10 9 9 8 6 4 2 1
5 5 5 5 7 8 12 16 20 23 25 26 27 28 28 29 27 24 24 26 29 30 29 29 29 28 27 26 25 24 24 23 22 21 21 21 21 20 19 18 17 17 17 16 15 15 14 14 14 13 13 14 13 13 13 13 14 14 14 15 14 14 14 14 13 12 12 12 12 13 13 13 12 11 11 10 10 10 9 8 8 7 7 6 4
4 5 5 5 7 9 11 15 19 23 25 26 27 27 27 29 30 28 26 26 26 28 29 30 31 30 29 28 26 25 24 23 22 22 22 22 22 21 20 18 17 16 16 16 15 15 15 15 15 15 15 15 14 14 14 14 15 16 16 16 16 15 16 15 14 13 13 12 12 12 12 13 13 13 13 12 12 10 9 8 8 8 9 9 9
5 5 4 5 9 12 11 14 18 21 24 25 26 27 28 26 26 28 29 26 24 26 28 29 31 31 30 29 27 26 25 24 23 22 22 23 23 22 20 19 17 16 15 15 15 15 16 16 16 16 16 16 15 15 16 16 17 17 17 17 16 16 16 16 15 14 14 14 14 13 12 13 13 14 14 13 13 12 10 9 9 10 10 10 11
6 5 5 6 9 13 13 12 16 19 21 24 25 28 30 28 26 28 31 31 29 27 27 28 29 29 29 29 29 28 26 25 23 22 22 23 22 21 20 19 18 17 16 16 16 16 17 17 17 16 16 16 16 16 17 18 18 18 18 17 17 17 17 16 15 15 15 15 15 15 14 14 14 14 14 14 14 13 13 12 11 12 12 12 12
7 7 6 6 9 13 13 10 11 15 18 22 24 26 28 29 29 28 30 32 32 29 28 28 28 27 28 29 29 29 28 27 25 24 23 22 22 22 20 19 19 18 18 17 17 17 17 18 17 17 16 16 16 16 17 18 19 19 19 18 18 18 18 18 17 16 15 15 16 17 16 16 16 16 15 15 15 14 14 15 14 13 13 13 13
6 6 6 6 9 13 13 10 8 11 15 21 23 24 26 29 29 29 30 32 33 31 29 28 28 28 28 28 26 27 28 28 28 26 25 24 22 22 20 20 20 19 19 18 18 17 17 17 18 18 18 18 18 18 18 19 19 19 19 20 19 20 20 20 19 18 17 17 17 18 18 18 17 17 17 16 16 16 16 16 15 14 13 14 13
5 5 5 7 9 11 12 10 8 9 12 17 21 23 24 27 29 30 32 33 33 32 29 28 27 28 29 28 27 27 27 28 29 29 28 27 24 22 21 21 21 20 20 19 19 18 18 18 19 19 19 19 19 19 19 20 20 20 20 21 21 22 22 22 21 21 20 20 20 19 19 19 18 17 17 17 16 16 16 16 16 15 15 15 13
4 5 5 6 7 8 10 12 10 10 11 14 18 21 22 23 27 30 31 31 31 31 29 27 25 25 26 28 28 28 28 28 30 30 30 29 27 24 22 21 21 21 21 21 20 20 20 20 21 21 21 20 20 20 20 20 20 20 20 21 22 23 23 23 23 23 22 22 22 21 21 20 18 18 18 17 16 16 15 15 16 16 15 14 13
5 5 6 6 6 6 9 12 13 12 11 13 16 19 21 22 24 27 28 28 29 30 29 29 27 24 23 26 28 28 29 29 30 30 30 30 29 27 25 24 24 24 24 23 23 23 23 23 23 23 23 23 22 21 20 20 20 20 20 21 22 23 24 24 23 23 22 21 21 22 21 19 17 17 17 18 17 16 16 16 16 16 14 14 13
5 5 6 7 6 7 9 11 13 14 12 13 15 17 19 21 22 24 25 26 28 28 29 30 31 27 25 25 28 29 30 30 29 29 30 30 29 29 27 26 26 25 25 25 25 25 25 25 24 24 24 24 23 22 22 21 21 21 21 22 23 23 24 24 23 23 21 21 21 21 21 19 16 15 15 16 17 17 17 18 17 16 15 14 14
6 6 7 7 7 7 9 11 13 14 13 11 12 15 17 20 22 24 25 27 28 28 27 28 28 29 29 29 29 30 30 30 29 29 29 29 29 29 28 27 26 25 25 24 24 25 25 24 24 24 25 25 25 24 23 23 23 23 23 23 23 24 24 25 24 24 23 23 22 21 20 18 15 13 13 14 16 17 17 17 16 15 14 13 12
7 7 8 7 7 7 8 12 13 12 12 11 11 13 15 17 20 22 25 28 28 28 28 27 26 29 32 32 31 31 31 30 29 29 28 29 28 27 27 26 25 25 24 23 23 23 23 24 24 25 25 26 26 26 25 24 23 23 24 24 24 24 25 25 25 25 26 25 22 20 20 17 15 13 13 13 13 14 14 14 12 11 10 10 9
7 8 8 7 6 7 9 12 13 13 12 12 11 12 13 15 17 19 23 26 26 26 28 28 28 31 32 31 30 30 30 30 29 29 29 28 27 26 25 25 25 25 23 22 22 22 23 24 25 26 26 27 28 27 26 24 23 23 24 24 24 24 25 25 26 27 26 23 20 20 19 15 14 15 14 13 12 11 12 11 8 7 7 8 8
8 7 7 7 7 8 10 11 13 15 15 14 13 13 12 14 16 17 21 22 24 26 27 29 31 33 32 30 30 31 30 29 29 29 28 27 26 25 25 25 25 24 22 21 21 21 20 20 21 22 24 26 26 26 25 24 24 23 22 22 23 24 25 25 25 25 23 21 20 20 17 15 16 16 14 13 12 11 11 11 9 8 7 8 8
7 7 6 8 9 9 10 12 14 16 16 16 15 15 15 15 15 18 20 21 23 25 26 27 29 30 30 29 31 30 29 27 26 26 26 26 25 25 25 25 24 22 22 20 19 17 15 14 16 18 20 21 22 23 24 24 24 22 21 21 22 23 24 24 23 21 20 20 20 19 16 16 17 14 12 12 11 10 10 11 10 9 9 9 9
6 7 7 6 8 10 12 13 15 15 15 15 15 15 17 18 18 19 20 19 21 23 24 26 27 26 26 26 27 26 26 26 25 22 20 19 18 20 22 22 22 22 22 21 19 17 15 13 15 17 17 18 19 20 21 21 22 21 21 21 21 22 23 20 18 19 19 19 18 17 16 15 14 11 10 10 9 9 9 8 8 9 10 8 5
6 6 6 6 8 11 12 13 14 14 14 14 14 14 16 19 19 19 21 20 19 19 21 22 20 18 18 18 19 19 19 19 17 15 14 14 12 13 17 20 22 23 24 23 21 18 16 16 16 16 16 15 17 19 19 20 20 20 21 21 21 22 21 18 16 17 17 17 15 14 12 10 9 8 7 7 7 7 7 7 6 7 9 8 5
5 5 5 7 9 11 12 13 13 14 14 13 13 12 13 15 16 16 19 19 17 17 19 19 18 18 18 17 18 20 19 16 12 11 13 16 16 14 14 15 18 22 24 19 13 9 9 11 13 14 14 14 15 17 17 18 19 19 20 20 20 19 18 17 15 14 12 9 8 8 8 8 7 6 6 4 4 4 4 5 6 5 5 6 6
4 4 6 8 10 11 11 12 12 13 14 15 14 10 6 7 11 15 18 19 20 21 21 21 20 20 20 20 20 22 22 20 17 13 13 17 18 16 13 11 13 17 16 12 8 8 9 9 12 13 14 13 14 15 15 16 17 18 19 19 18 16 15 14 12 10 8 7 7 7 7 8 7 6 4 2 2 2 2 3 5 3 1 1 4
5 6 7 9 10 11 11 12 13 13 14 14 12 7 4 3 4 10 14 17 19 21 21 20 18 18 19 19 19 19 21 21 20 16 16 18 18 16 13 12 14 15 10 7 9 10 10 10 11 12 13 12 12 13 15 16 17 17 17 16 15 13 12 11 9 8 10 12 10 7 6 7 7 5 3 2 1 2 1 1 3 3 4 3 2
7 8 10 11 11 10 11 12 13 14 14 13 11 7 7 8 8 7 9 10 11 13 16 16 15 17 20 20 19 18 18 19 19 18 18 19 18 16 15 14 15 15 10 7 9 9 8 9 10 11 12 11 11 12 13 14 15 16 15 14 12 8 6 5 5 6 7 5 3 6 7 8 7 5 3 2 2 1 2 3 4 5 5 6 5
9 9 10 12 11 11 13 14 14 16 15 13 12 12 12 12 11 10 10 9 7 7 9 9 9 12 16 19 20 19 18 18 18 18 18 18 16 15 13 12 12 12 10 8 8 7 6 7 8 9 9 9 9 10 11 13 14 14 14 12 7 5 5 5 5 6 8 10 12 11 8 8 8 7 5 4 3 3 5 6 6 6 8 9 9
10 10 11 12 13 14 15 15 15 15 15 15 15 17 17 16 16 16 15 12 11 10 9 9 10 12 15 18 20 19 19 20 20 19 18 16 14 13 12 11 11 10 8 7 6 6 5 5 5 5 5 5 5 6 9 12 13 14 13 9 5 8 11 11 10 11 14 16 16 15 13 11 10 10 9 8 8 8 9 10 10 10 11 11 9
9 11 12 12 14 15 16 16 16 15 15 16 17 19 19 18 20 20 18 16 16 16 16 17 17 18 19 19 17 17 19 19 18 18 18 16 14 12 11 10 9 7 6 5 5 4 4 4 3 1 0 1 3 4 6 10 11 12 12 8 5 9 14 15 15 14 17 19 19 18 18 15 14 14 13 13 13 13 13 14 14 14 13 11 10
9 11 12 12 14 17 18 18 17 17 17 17 18 20 20 20 22 21 18 17 19 19 20 21 22 22 22 21 19 18 18 17 16 16 17 16 14 13 12 11 10 8 7 7 6 4 4 4 4 3 2 2 3 3 4 7 9 9 8 7 5 9 15 18 19 20 20 21 22 21 20 18 17 17 17 17 17 17 17 17 16 14 13 12 13
10 11 11 12 15 17 17 17 16 17 17 18 19 20 20 20 19 17 15 17 18 19 21 22 24 25 25 24 23 22 21 19 17 16 17 17 16 15 14 13 12 12 12 11 9 7 6 6 6 6 6 6 6 5 5 4 4 2 0 1 4 10 17 21 24 25 23 22 23 23 21 19 18 19 19 19 18 19 19 18 16 14 14 14 16
8 9 10 12 14 16 15 15 16 17 17 18 19 18 18 18 16 15 15 17 18 20 23 24 25 26 26 26 26 26 26 24 22 21 21 21 19 17 16 15 15 15 16 15 13 11 11 10 10 10 9 9 9 9 9 10 9 9 10 10 12 18 23 26 28 27 25 24 24 23 21 20 20 21 21 21 21 21 21 21 19 18 18 18 19
6 7 8 10 13 14 15 16 17 17 16 16 17 17 16 15 15 17 18 18 19 22 25 25 25 25 26 26 28 28 28 26 26 25 24 23 21 20 19 18 18 19 19 19 17 15 15 15 14 13 12 11 11 12 13 14 16 17 18 20 24 27 28 29 30 29 26 25 24 23 23 22 22 22 22 23 24 23 23 22 22 22 21 22 23
5 6 6 9 14 15 16 17 17 17 17 16 15 16 16 15 15 17 18 19 21 23 24 24 23 23 24 26 28 28 27 26 26 25 24 23 22 21 20 19 19 19 19 18 17 16 16 16 16 14 13 12 13 14 15 16 19 22 24 25 29 30 30 31 31 28 25 24 23 23 23 23 23 24 25 26 26 24 24 24 24 24 25 25 25
7 6 6 10 14 16 16 16 16 16 18 17 16 16 16 16 16 16 17 18 20 21 21 21 20 20 21 23 26 26 25 24 24 23 22 22 22 21 21 19 18 18 17 16 16 16 15 15 14 13 13 13 13 15 16 17 19 23 25 26 28 29 29 30 29 27 25 24 24 24 24 24 24 25 25 26 26 25 25 25 25 26 26 26 26
9 9 10 11 13 14 15 14 14 15 17 17 18 17 17 17 17 16 16 18 19 20 20 19 19 19 20 22 24 23 23 23 23 22 22 22 21 22 22 21 20 19 19 18 18 16 15 13 13 12 13 14 15 15 17 19 21 23 25 26 27 28 27 27 27 26 26 25 25 24 24 24 24 25 25 25 25 26 26 26 26 25 25 25 24
11 11 13 14 12 12 13 13 12 13 16 17 18 18 17 18 18 17 19 20 21 21 21 21 21 21 22 23 23 23 24 25 25 25 25 24 22 22 22 22 21 21 21 21 19 18 16 14 14 14 14 16 17 17 18 20 22 23 24 24 25 26 26 26 25 25 25 25 25 24 24 24 24 25 26 26 26 26 26 25 25 24 24 24 24
13 12 14 17 14 12 13 14 11 10 13 15 16 17 17 18 19 19 21 22 22 23 23 22 22 23 23 23 23 23 24 24 25 25 26 25 24 23 23 24 24 23 22 21 20 20 18 17 18 18 18 18 18 18 19 21 22 22 22 22 23 23 24 25 24 23 24 25 24 24 24 24 25 25 25 25 25 25 25 24 24 23 24 23 24
15 14 15 18 17 14 14 15 12 10 11 12 13 14 15 16 18 19 21 22 23 24 23 22 22 22 22 22 22 22 22 23 23 23 24 25 25 25 24 25 25 24 23 22 21 21 20 20 21 22 22 21 20 18 18 20 21 21 20 21 22 21 22 22 20 19 23 24 24 24 24 24 24 24 24 23 23 22 23 22 22 23 23 23 23
Wind_Direction
100 150 182 186 190 193 192 189 188 188 190 192 192 195 196 196 200 202 204 207 203 200 196 193 196 195 195 193 194 199 202 205 206 205 203 200 198 197 197 197 198 200 199 195 196 209 242 256 258 257 260 262 267 277 291 304 321 334 328 326 327 330 336 340 344 336 327 327 322 317 317 310 300 289 285 287 288 289 290 297 296 282 277 279 281
98 127 177 185 188 188 187 185 184 184 186 190 192 195 197 197 200 202 202 204 205 204 199 196 196 193 191 189 190 194 198 202 204 203 200 198 198 197 197 198 199 201 201 199 202 215 240 249 251 250 253 262 268 272 279 286 305 315 313 314 316 326 334 338 338 333 330 338 334 329 336 342 339 334 330 322 305 298 299 302 303 295 299 307 293
74 120 175 189 185 183 184 185 186 187 187 190 193 194 195 197 201 202 201 201 204 206 204 201 198 194 191 189 189 192 197 202 203 200 198 200 200 198 199 199 200 204 205 207 210 217 236 242 241 243 249 263 270 273 273 276 295 303 307 311 312 318 327 336 337 330 321 326 334 335 341 344 346 3 353 350 351 329 318 314 309 300 316 328 311
242 159 184 201 184 182 185 187 187 186 187 189 192 193 195 198 201 202 200 200 202 204 206 203 195 193 194 194 194 196 199 203 204 201 201 203 203 202 201 201 204 209 212 216 217 221 232 234 237 245 251 262 271 279 282 283 293 301 307 310 313 316 322 334 333 331 328 323 333 330 166 352 331 335 340 350 13 355 346 355 335 317 318 321 324
202 178 192 208 196 191 189 188 187 186 189 191 193 194 195 199 202 202 200 199 201 201 201 198 190 189 192 193 195 197 199 203 206 205 204 204 205 204 203 205 210 215 220 224 223 225 231 230 237 247 250 260 274 287 294 294 297 304 309 312 316 319 322 327 321 326 338 336 319 271 283 353 243 314 328 332 350 351 5 7 356 5 359 339 333
231 246 212 205 209 203 194 190 189 190 194 194 196 196 197 201 202 202 200 198 199 199 195 192 190 190 190 188 188 192 196 203 206 205 203 204 205 205 207 211 216 222 227 228 226 227 232 232 236 247 252 261 272 285 293 295 300 308 312 315 322 323 323 325 322 320 328 330 329 295 277 272 257 305 328 304 333 342 356 353 358 7 358 348 345
248 271 265 224 209 205 201 197 194 196 197 196 196 197 198 201 202 201 200 197 197 196 192 190 192 194 195 194 193 194 198 203 206 204 204 205 206 208 212 216 222 227 229 228 226 228 233 236 239 250 258 265 273 281 289 294 301 311 315 318 320 319 319 325 327 326 324 322 336 331 300 274 266 286 280 290 324 322 334 348 1 356 353 353 347
223 243 257 246 215 207 207 205 202 200 198 196 197 198 200 203 203 202 200 197 196 195 193 192 195 197 198 200 201 201 202 202 204 205 205 207 209 212 215 218 224 229 227 225 226 229 236 239 242 251 258 264 274 281 289 296 301 310 317 317 314 309 308 317 322 327 332 329 333 337 319 290 282 289 282 288 302 295 325 344 351 348 353 357 347
233 236 247 250 233 219 214 211 208 205 200 198 199 200 202 204 204 202 201 198 196 196 196 196 198 199 200 203 205 206 206 203 203 206 207 209 213 215 216 220 225 228 226 224 227 231 238 240 242 249 255 263 275 281 287 293 297 305 315 316 310 303 297 305 311 311 326 336 336 336 325 306 305 306 296 295 260 269 302 323 335 341 347 350 353
239 246 253 254 244 231 222 216 213 209 204 202 201 200 202 204 204 202 202 201 198 198 198 198 200 202 202 203 205 206 207 207 208 210 212 214 218 218 219 224 227 228 229 228 229 233 237 239 241 246 255 267 276 277 276 281 289 293 299 304 303 296 289 293 299 298 307 321 328 333 332 324 318 308 302 312 296 256 257 279 309 328 330 333 346
248 253 260 265 265 249 224 214 215 212 207 204 201 201 203 204 204 204 204 203 200 200 201 202 202 204 205 204 205 206 207 210 213 215 217 220 222 223 224 229 232 233 233 232 233 236 238 238 240 246 257 268 273 272 266 265 273 277 284 296 298 291 285 286 290 292 298 306 314 322 330 330 317 293 297 305 292 254 256 281 300 315 308 308 330
244 250 263 277 288 277 229 208 210 209 207 207 204 203 204 204 204 205 205 203 202 202 203 205 205 206 208 208 209 210 211 213 216 218 219 221 224 226 228 232 236 236 234 233 233 236 237 236 238 245 254 263 268 268 260 254 258 264 273 288 295 288 281 282 285 287 292 300 306 310 317 321 312 305 302 300 292 278 271 271 299 319 311 303 323
243 257 278 273 275 277 244 209 203 206 209 209 206 205 205 205 205 205 206 205 204 204 205 207 209 209 210 213 215 216 217 218 219 220 220 222 224 226 229 233 235 234 233 233 234 234 235 234 236 243 251 260 265 266 259 250 250 256 266 279 287 287 280 281 284 284 287 296 303 304 305 305 306 312 312 304 298 286 273 275 302 316 305 306 322
261 264 257 238 242 266 263 138 139 239 238 225 217 211 207 207 207 208 209 207 205 206 207 209 212 214 214 216 219 221 222 222 222 223 223 225 226 228 233 235 234 235 234 235 237 236 235 233 236 243 250 259 264 266 261 250 248 254 264 275 284 284 281 285 288 284 282 288 295 297 295 295 299 309 313 310 304 290 278 279 300 315 305 305 321
279 255 249 245 239 230 160 152 180 209 227 233 234 229 220 215 210 209 211 210 208 207 209 212 214 217 219 221 222 223 226 227 227 228 228 229 231 234 237 236 235 235 235 238 242 240 236 235 239 246 252 260 266 269 265 254 251 259 269 279 286 284 282 286 290 285 280 280 283 287 288 290 295 303 312 316 314 303 292 287 290 309 316 311 320
315 287 282 277 245 198 178 192 198 200 203 205 213 225 232 232 224 215 213 212 211 209 208 213 216 217 219 222 225 226 228 230 231 233 233 234 237 237 236 236 236 238 240 244 247 245 241 240 245 252 258 266 271 273 269 260 258 267 275 284 287 286 284 287 290 286 283 283 284 286 287 291 298 305 312 321 322 315 304 296 287 267 266 323 320
327 312 300 297 267 219 204 203 200 203 207 203 202 207 214 228 238 232 221 214 212 212 211 212 215 218 219 222 226 229 230 232 233 234 234 237 239 235 233 236 238 242 245 250 253 251 248 249 253 258 262 267 273 276 273 267 266 272 278 283 286 285 285 285 285 283 284 287 287 288 292 297 305 312 314 320 323 319 310 302 294 274 248 246 299
305 301 295 295 287 257 229 210 199 205 212 209 208 208 206 212 222 231 231 223 216 214 213 212 213 217 221 223 226 229 231 233 235 236 236 237 236 232 231 235 240 245 249 253 256 254 253 254 256 257 260 265 271 275 274 270 270 274 278 281 282 282 282 282 279 276 280 288 290 292 296 300 307 313 314 317 320 319 310 301 298 285 263 244 236
300 301 301 295 293 285 253 225 209 206 212 214 213 215 214 211 212 218 227 229 225 219 215 214 214 215 220 224 226 228 230 233 235 235 234 235 233 230 230 234 240 246 250 251 253 254 254 254 255 257 260 265 271 274 276 276 275 275 277 278 280 280 280 281 279 277 279 285 289 291 294 300 309 311 309 309 312 314 310 302 296 286 276 264 247
316 305 301 292 290 290 276 247 228 216 215 216 212 216 219 215 212 215 218 223 231 230 220 215 216 216 219 223 226 228 229 230 232 232 231 231 231 231 234 238 242 244 246 247 250 253 253 254 257 260 263 266 271 275 278 281 282 282 279 276 277 277 277 280 284 284 284 286 287 290 293 298 306 309 306 304 306 308 310 307 301 290 283 276 256
322 311 302 294 288 289 288 270 250 235 226 221 215 215 218 215 212 214 215 216 223 231 228 221 219 218 218 220 223 225 226 227 229 229 230 231 233 237 242 245 246 244 242 244 249 253 255 257 260 262 266 270 272 274 277 280 283 283 279 274 273 274 275 279 284 287 288 289 291 292 293 295 300 305 305 305 303 304 307 306 303 295 286 280 264
325 322 313 303 296 295 297 288 262 246 235 227 221 216 216 215 214 215 216 215 217 223 229 227 223 221 221 221 222 224 225 227 228 230 232 234 237 240 244 248 247 244 241 244 251 255 257 258 258 261 267 272 273 273 274 276 278 279 276 272 270 271 274 278 282 284 285 288 290 292 295 296 299 301 302 304 302 300 303 303 301 298 291 286 276
328 325 320 313 308 305 304 296 268 246 236 231 227 221 216 214 214 215 216 217 216 218 224 227 225 224 224 223 224 225 225 226 228 232 235 237 240 242 244 246 245 243 243 247 252 257 259 259 258 262 269 273 273 272 273 274 275 275 274 272 271 271 273 276 279 281 283 285 286 288 291 295 299 300 300 301 300 298 300 300 297 296 294 293 286
324 313 315 319 320 319 314 302 273 245 236 232 229 226 221 215 213 214 216 217 216 215 217 222 226 226 224 223 223 225 226 227 229 232 234 237 240 243 244 244 243 244 247 250 253 256 260 261 262 265 270 273 274 273 273 273 274 275 273 271 271 271 272 274 276 279 282 283 283 283 287 291 294 295 297 301 303 300 298 297 295 293 291 292 290
318 314 317 317 321 326 323 317 299 263 241 235 231 227 225 219 214 216 217 216 216 215 212 213 221 227 226 223 222 223 224 227 229 231 233 234 236 239 241 242 243 246 249 252 253 254 258 261 264 266 268 271 272 272 272 272 273 274 273 271 270 271 273 274 276 280 283 283 282 283 285 288 290 290 294 300 305 304 301 299 297 296 293 291 289
317 320 319 313 320 326 325 327 320 295 260 243 237 230 227 223 218 217 218 216 215 215 211 207 211 221 229 228 224 222 223 226 228 230 231 231 232 234 237 239 243 247 251 254 254 256 259 262 264 266 268 270 271 270 269 269 270 271 272 271 270 271 273 275 278 281 283 284 285 285 285 284 286 289 294 300 301 300 302 302 301 299 296 293 293
319 325 324 319 323 323 323 327 326 315 290 258 246 238 230 225 221 218 217 216 216 215 213 210 208 212 224 231 229 224 223 225 227 229 229 229 230 232 234 238 242 247 252 255 256 258 261 265 267 268 269 270 270 269 269 269 270 272 273 272 271 272 273 275 277 279 280 283 286 285 283 281 282 288 295 300 299 296 298 302 304 302 297 296 296
327 326 323 323 322 318 320 324 324 323 314 289 265 251 239 231 227 221 217 217 219 217 216 216 212 209 216 227 230 228 225 225 227 229 230 230 230 232 234 238 242 247 252 256 258 260 262 266 268 269 270 270 270 270 272 271 271 271 273 273 271 272 274 275 276 278 280 284 285 284 283 281 280 285 291 294 295 296 297 300 304 307 308 308 306
331 325 320 321 319 317 318 320 323 327 328 320 298 273 253 239 232 226 220 219 219 215 214 216 214 212 216 223 228 229 226 225 226 228 230 232 233 234 236 239 243 247 252 256 258 261 264 269 272 272 272 271 270 270 271 270 270 270 271 272 272 273 275 276 278 280 281 283 285 283 282 279 276 279 287 289 290 290 291 296 305 312 312 306 299
326 319 319 322 324 325 324 324 328 332 335 332 320 301 277 254 241 232 225 221 217 214 213 214 215 217 220 222 224 227 227 225 226 228 230 233 234 236 238 241 245 248 251 255 257 260 266 271 272 272 271 271 271 271 270 268 269 272 273 275 274 275 277 278 280 282 283 284 285 282 280 279 278 282 285 284 282 278 274 278 289 299 299 294 287
321 313 319 331 336 335 330 329 329 330 332 332 324 315 298 274 256 242 233 225 219 216 217 218 219 222 224 222 221 223 224 224 226 228 230 233 235 238 240 242 244 245 247 250 253 256 261 265 267 269 271 271 272 273 270 267 267 270 274 275 275 276 277 278 281 283 283 281 280 281 283 283 284 287 287 282 279 277 273 271 272 272 275 282 284
323 322 331 340 339 336 329 329 330 329 330 328 321 315 303 285 266 251 241 231 223 220 220 223 226 226 225 223 220 220 220 220 223 226 229 233 235 237 240 241 240 239 239 239 239 240 244 254 263 267 269 271 272 271 269 266 265 267 270 272 272 272 274 276 279 281 280 278 278 281 285 285 285 291 292 284 280 282 286 291 289 276 265 267 275
331 334 340 340 333 329 325 326 330 330 327 324 319 309 295 284 270 254 242 232 226 223 223 228 231 231 230 226 221 216 215 215 216 217 221 225 231 235 237 237 234 232 232 230 227 229 240 258 267 266 267 269 269 268 267 265 265 267 269 270 269 268 269 271 274 275 276 276 276 278 283 283 283 290 288 279 276 280 288 295 294 284 277 274 273
340 343 340 331 325 324 325 330 335 332 328 323 318 307 291 284 274 250 231 223 221 220 221 225 228 228 230 230 223 218 218 215 205 194 190 191 203 224 232 232 229 227 227 229 231 240 255 268 267 260 260 265 267 269 270 269 270 271 270 270 268 267 266 265 268 272 275 274 272 275 282 283 279 278 274 271 276 281 285 290 287 287 290 285 273
350 348 333 328 330 328 330 337 338 335 335 329 321 312 294 282 269 237 215 207 207 210 214 216 213 210 214 220 218 217 223 226 212 191 185 185 192 206 219 227 230 228 226 226 230 240 258 277 279 268 262 265 269 272 274 274 275 274 272 271 269 268 266 263 266 272 274 272 270 267 266 265 263 261 258 266 285 288 291 298 296 294 298 299 298
343 339 329 332 337 337 339 342 340 342 347 341 330 326 313 274 240 213 199 195 198 205 209 210 208 205 207 211 211 212 216 220 216 208 200 195 196 199 199 208 230 234 228 218 211 212 227 260 279 276 270 270 270 273 275 276 276 275 274 273 270 269 267 263 264 265 258 256 264 260 246 242 243 241 234 237 275 275 279 303 312 315 310 310 310
358 357 352 352 353 357 360 356 353 358 359 352 345 348 25 74 159 182 183 186 195 203 208 210 208 205 207 211 211 209 208 208 207 208 210 209 207 206 204 209 230 243 240 216 208 213 223 240 253 260 265 269 269 271 273 274 275 276 277 277 276 274 267 257 250 252 261 269 272 254 220 207 211 211 193 163 185 226 238 4 27 54 94 97 43
20 18 12 7 6 12 17 15 11 10 7 3 5 21 55 71 86 121 145 155 171 188 198 204 204 206 212 214 210 204 201 204 206 204 206 209 211 215 215 214 222 233 233 212 203 210 226 238 242 248 256 262 265 269 272 274 276 279 280 282 281 268 249 247 245 242 251 255 214 185 183 174 164 160 158 155 162 166 121 83 69 78 85 71 53
33 28 18 11 12 19 27 28 21 15 14 20 33 48 56 62 75 88 95 99 111 143 168 174 175 184 194 200 203 201 196 194 194 188 189 194 196 197 196 193 200 209 210 203 201 205 216 223 228 238 247 256 264 271 276 278 280 282 283 284 275 239 230 249 242 200 172 151 140 144 151 146 134 130 127 113 98 93 92 86 80 80 70 54 45
37 31 23 22 27 31 33 31 24 22 29 40 55 62 58 58 66 67 59 59 72 91 106 114 122 132 146 164 181 185 176 169 168 165 165 170 168 164 163 168 177 183 179 176 178 177 173 176 195 220 240 258 270 280 285 285 285 286 288 288 262 239 235 225 202 171 149 138 131 126 120 117 115 111 105 96 89 85 87 87 83 79 71 60 57
36 27 24 28 35 40 42 39 36 41 45 49 58 62 57 56 60 55 47 53 71 86 95 101 105 110 118 131 145 149 145 143 144 144 143 141 139 140 143 147 151 150 144 143 149 156 154 141 139 161 264 305 314 318 305 296 294 295 295 295 267 231 213 190 166 143 127 122 118 113 109 107 105 101 95 90 87 84 83 81 77 76 77 75 75
34 29 29 34 39 44 48 47 47 52 53 53 58 59 55 55 54 51 54 67 79 89 94 95 95 97 103 111 115 119 122 124 128 133 130 124 121 122 121 119 119 118 117 117 119 123 121 104 93 87 75 52 35 12 341 317 307 300 296 294 261 206 184 163 138 118 110 108 107 105 103 100 97 94 90 87 84 81 78 77 77 82 88 89 89
43 39 39 41 44 47 49 49 51 58 60 62 64 63 62 62 58 58 70 79 84 91 93 91 91 92 97 102 106 108 110 111 112 115 113 107 103 102 102 105 111 114 114 113 112 112 109 99 89 88 84 80 77 69 55 36 5 350 97 199 189 165 152 137 122 111 106 106 105 103 100 96 92 89 87 85 83 80 79 80 82 87 90 91 90
56 50 46 46 50 52 51 50 54 61 67 70 72 72 72 73 75 80 86 85 84 89 90 87 86 89 93 96 100 102 103 103 101 100 98 96 95 97 101 106 112 116 117 114 113 114 111 105 100 100 98 93 91 90 88 85 84 95 113 127 137 137 131 124 117 112 110 109 107 103 100 97 93 92 91 90 87 85 84 84 84 85 86 86 84
53 49 52 59 64 63 57 53 53 59 66 73 78 81 79 77 82 89 91 88 86 86 86 84 83 85 89 91 93 96 97 97 97 97 96 96 99 103 105 108 111 113 113 111 111 112 112 109 107 105 103 100 98 97 96 97 99 102 110 119 124 124 122 119 114 111 110 110 107 105 103 99 96 94 93 90 87 85 84 83 82 80 79 77 76
45 38 52 69 76 74 67 59 55 58 65 70 77 83 84 83 87 91 91 90 89 86 84 84 84 85 88 91 92 93 95 96 98 100 100 101 104 105 105 106 106 105 104 105 105 105 105 104 102 100 98 98 99 98 96 100 107 108 108 111 115 117 116 113 110 109 110 109 107 104 101 98 95 93 90 87 85 83 82 80 79 76 74 71 70
59 59 69 75 76 75 70 62 58 62 68 70 73 79 87 93 95 97 99 98 95 91 88 88 89 89 90 91 91 93 96 96 97 100 102 104 106 106 105 103 103 102 101 100 100 99 98 96 95 95 95 96 98 100 99 101 108 111 111 112 113 113 113 111 110 109 109 106 104 102 99 96 94 91 88 86 84 82 79 76 75 74 72 71 69
76 84 91 87 80 79 77 70 65 68 70 71 74 78 87 95 98 103 107 102 97 95 92 90 90 90 88 89 90 92 93 94 94 95 96 96 98 99 98 95 96 97 98 97 96 94 92 92 94 96 97 97 99 103 104 104 107 110 112 114 114 114 114 114 113 111 110 108 106 103 99 96 92 88 85 84 81 79 78 75 73 72 70 68 66
83 84 92 93 86 86 88 83 76 75 73 72 75 77 81 88 94 99 101 98 94 93 91 88 88 87 85 86 89 90 91 92 91 90 88 85 86 90 91 91 90 91 91 91 90 88 86 89 94 95 96 98 101 104 106 107 110 112 114 114 115 115 117 117 116 115 114 110 105 99 94 90 87 85 83 81 80 79 77 74 71 69 65 62 59
98 92 92 94 92 92 96 94 90 87 83 78 77 76 78 85 91 94 95 94 93 91 87 85 85 85 85 86 87 88 89 90 89 88 86 83 81 83 87 89 89 87 84 83 81 81 82 85 88 89 91 95 100 104 109 112 114 116 116 115 116 118 119 120 121 119 113 105 99 93 89 87 85 83 81 81 79 77 75 72 69 66 62 59 57
116 109 99 97 96 93 94 97 99 100 98 94 86 81 83 87 90 91 92 91 90 88 85 83 83 83 84 85 86 86 87 87 87 88 89 88 86 85 86 89 88 85 81 79 78 79 81 82 83 84 85 88 93 100 109 117 120 119 118 119 121 123 123 124 124 115 104 99 96 93 89 87 87 86 84 83 81 79 77 74 71 67 64 60 58